Location: Aldenham
(51.6667°N, 0.3500°W)
Time: 16:57:39
(UTC+00:00)

IRAS Rocket - Pass Details

Date: 18 November 2025
Orbit: 845 x 876 km, 100.1° (Epoch: 09 December)

Event Time Altitude Azimuth Distance (km) Brightness Sun altitude
Rises 17:36:29 0° 143° (SE) 3,436 7.1 -13.6°
Reaches altitude 10° 17:38:55 10° 139° (SE) 2,499 6.4 -13.9°
Maximum altitude 17:44:16 52° 64° (ENE) 1,058 4.3 -14.7°
Drops below altitude 10° 17:49:36 10° 350° (N) 2,495 6.6 -15.6°
Sets 17:52:01 0° 346° (NNW) 3,431 7.4 -15.9°
